カタログに戻る

YAOGAN-30 W

運用中軍事VLEO
NORAD 46809·PAYLOAD·🇨🇳 China

打ち上げ Oct 26, 2020 から Xichang Satellite Launch Center

Loading…

次のパス (今後24時間)

TLE

最新Source: Space-Track

元期: Sep 14, 2026, 11:42 UTC

1 46809U 20076C   26257.48776325  .00001599  00000-0  11849-3 0  9996
2 46809  34.9957 266.4496 0005701 136.9486 223.1669 15.03037012321583

AllMySatでYAOGAN-30 Wをリアルタイム追跡

Download on the App Store